Location: Shenandoah County Park
(38.9356°N, 78.4524°W)
Time: 13:02:03
(UTC-05:00)

A-11 Canister half - Visible Passes

Search period start: 07 February 2023 00:00
Search period end: 17 February 2023 00:00
Orbit: 1525 x 1683 km, 47.3° (Epoch: 06 February)

Date Brightness Start Highest point End Pass type
(mag) Time Alt. Az. Time Alt. Az. Time Alt. Az.
07 Feb 10.9 02:27:46 16° E 02:27:46 16° E 02:30:34 10° E visible
07 Feb 9.0 04:26:05 54° SSW 04:28:17 68° SE 04:37:31 10° ENE visible
07 Feb 9.1 06:24:25 10° W 06:33:33 60° NNW 06:42:51 10° ENE visible
08 Feb 11.1 02:07:37 12° E 02:07:37 12° E 02:08:36 10° E visible
08 Feb 9.0 04:05:55 64° SSE 04:06:37 66° SE 04:15:48 10° ENE visible
08 Feb 9.1 06:04:14 16° W 06:11:49 61° NNW 06:21:07 10° ENE visible
09 Feb 9.2 03:45:40 61° ESE 03:45:40 61° ESE 03:54:05 10° ENE visible
09 Feb 9.1 05:43:58 24° W 05:50:05 62° NNW 05:59:22 10° ENE visible
10 Feb 9.5 03:25:19 50° E 03:25:19 50° E 03:32:22 10° ENE visible
10 Feb 9.0 05:23:38 32° W 05:28:20 64° NNW 05:37:38 10° ENE visible
11 Feb 9.9 03:04:56 40° E 03:04:56 40° E 03:10:38 10° ENE visible
11 Feb 9.0 05:03:14 42° W 05:06:36 65° NNW 05:15:55 10° ENE visible
12 Feb 10.2 02:44:28 31° ENE 02:44:28 31° ENE 02:48:54 10° ENE visible
12 Feb 8.9 04:42:46 54° WNW 04:44:53 67° NNW 04:54:11 10° ENE visible
12 Feb 9.4 06:42:03 10° WNW 06:51:04 52° N 07:00:13 10° ENE visible
13 Feb 10.5 02:23:59 24° ENE 02:23:59 24° ENE 02:27:11 10° ENE visible
13 Feb 8.8 04:22:16 65° NW 04:23:09 69° NNW 04:32:28 10° ENE visible
13 Feb 9.4 06:20:33 11° WNW 06:29:19 51° N 06:38:26 10° ENE visible
14 Feb 10.8 02:03:26 18° ENE 02:03:26 18° ENE 02:05:27 10° ENE visible
14 Feb 8.9 04:01:44 70° N 04:01:44 70° N 04:10:45 10° ENE visible
14 Feb 9.4 06:00:01 16° WNW 06:07:33 51° N 06:16:39 10° ENE visible
15 Feb 11.1 01:42:52 13° ENE 01:42:52 13° ENE 01:43:43 10° ENE visible
15 Feb 9.1 03:41:09 63° NNE 03:41:09 63° NNE 03:49:02 10° ENE visible
15 Feb 9.4 05:39:26 21° WNW 05:45:47 51° N 05:54:52 10° ENE visible
16 Feb 9.4 03:20:33 53° NE 03:20:33 53° NE 03:27:20 10° ENE visible
16 Feb 9.4 05:18:50 27° WNW 05:24:02 51° N 05:33:06 10° ENE visible
